星链-11256 (STARLINK-11256)

导读 | 星芒AI

STARLINK-11256 是 SpaceX Starlink 项目中的一颗低轨通信卫星,属于第二代星链星座的一部分。该卫星于2023年发射,旨在为全球用户提供高速互联网服务。它运行在约550公里高度的近地轨道,采用先进推进系统和激光通信技术,以提高网络效率和减少延迟。Starlink 卫星群致力于构建覆盖全球的宽带网络,尤其服务于偏远地区。

基本信息
目录编号:
60904
目录名称:
STARLINK-11256
国际标识:
2024-154B
轨道中心:
EARTH
卫星名称:
星链-11256
卫星全名:
星链-11256 (STARLINK-11256)
卫星状态:
在轨 (已飞行472 天)
发射日期:
2024-08-31 UTC
国别 :
美国 (US)
星等 :
--
轨道信息
数据来源 国际轨道数据
星历时间: 2025-12-15T07:27:39+0800
1天前
查看轨道信息
半长轴: 6737.79km
偏心率: 0.0001152
轨道倾角: 53.158°
近地点辐角 69.604°
升交点赤经 188.555°
平近点角 290.510°
近地点: 358.878km
远地点: 360.432km
周期: 91.735分钟
每日圈数: 15.697359
详细信息
固有亮度:
5
最大亮度:
2.5
卫星平台:
Starlink V1.0
覆盖范围:
全球
运营商:
太空探索技术公司
运营商所在国:
美国
制造商(研发单位):
太空探索技术公司
制造商所在国:
美国
使用方式:
暂无
卫星简介
Starlink 计划是 SpaceX 推出的全球卫星互联网项目,通过发射低轨道卫星,为全球尤其是偏远地区提供高速、低延迟的互联网服务。自 2019 年起,Starlink 已部署数千颗卫星,旨在缩小全球数字鸿沟,推动互联网普及。该项目还为军事、航空等行业提供通信支持,带来广泛经济效益。
2D轨道图
3D轨道图
轨道高度分析图
轨道倾角分析图
轨道综合分析图
查看轨道综合分析图